Weather in Khovanshchina

Russia / Republic of Mordovia     54°04′20″N   44°35′53″E
temp.,
°C
wind,
m/s
gust,
m/s
humid.,
%
clouds,
%
prec.,
mm/h
press.,
hPa
HPBL,
m
4 march, thu
thu400:00−6wsw6129699 0.2 1009347
03:00−3wsw7129499 0.4 1007664
06:00−2wsw71394100 0.3 1005810
09:00−1wsw91492100 0.4 1002917
12:000wsw101695100 0.7 1000950
15:000wsw101689100 0.8 10001061
18:00−1wsw81396100 0.6 1000760
21:00−2wsw61097100 1.9 1000516
5 march, fri
fri500:00−3n2498100 2.1 1000195
03:00−4n2397100 3.3 1000101
06:00−5n2297100 0.6 100253
09:00−5n3495100 0.9 1004212
12:00−4nnw248894 0.1 1007467
15:00−4wnw358794 0.1 1009607
18:00−8wsw349318 0.0 101031
21:00−9wsw479538 0.0 1013128
6 march, sat
sat600:00−11w459886 0.0 101385
03:00−13w349676 0.1 101541
06:00−15nw239724 0.0 101620
09:00−12nnw129541 0.0 101778
12:00−9nne227845 0.0 1017299
15:00−8ne117828 0.0 1016305
18:00−14se11860 0.0 101521
21:00−15ssw128414 0.0 101620
7 march, sun
sun700:00−14sw238875 0.0 101522
03:00−12sw379687 0.2 1015158
06:00−12wsw489693 0.2 1014199
09:00−12wsw599595 0.2 1013281
12:00−7sw8128360 0.0 1010765
15:00−6sw9158980 0.1 10061004
18:00−6sw101893100 0.3 10021143
21:00−4sw101694100 1.6 10001053
8 march, mon
mon800:00−7w61283100 0.8 1000557
03:00−12wsw498867 0.8 1002140
06:00−13sw511820 0.0 1002157
09:00−10ssw511750 0.0 1000266
12:00−5ssw599485 0.4 997706
15:00−7w10167992 1.7 9971076
18:00−10w7158982 0.1 1001738
21:00−9w9168791 0.1 1005766